User: anonymous   Login
Location: Unspecified
(0.0000°N, 0.0000°E)
Time: 08:35:32
(UTC+00:00)
Language:

GRACE-FO 1 - Orbit

View from above orbital plane
View from above orbital plane
View from above satellite
View from above satellite

Ground track
Ground track

The orbit data is extracted from the following two-line orbital elements,

1 43476U 18047A   20024.07370370 +.00000300  00000-0 +12325-4 0    02
2 43476  88.9986 157.3753 0020515 100.7823 340.8203 15.23966416 93082
Epoch (UTC): 24 January 2020 01:46:08
Eccentricity: 0.0020515
inclination: 88.9986°
perigee height: 480 km
apogee height: 508 km
right ascension of ascending node: 157.3753°
argument of perigee: 100.7823°
revolutions per day: 15.23966416
mean anomaly at epoch: 340.8203°
orbit number at epoch: 9308

The dashed part of the orbit path shows where the satellite is in the earth's shadow,  

DLR